[[{"header":{"parameterUnit":"m.s-1","parameterCategory":1,"la1":30.2991,"la2":30.254,"lo1":-89.0895,"lo2":-89.0444,"dy":0.0017,"dx":0.0017,"nx":28,"ny":28,"refTime":"2024-02-03T09:00:00:Z","depth":0,"parameterNumber":2,"parameterNumberName":"U-component_of_WINDS"},"data":[0,0,0,0,0,0,0,0,0,0,0,0,0,0,0,0,0,0,0,0,0,0,0,0,0,0,0,0,0,0,0,0,0,0,0,0,0,0,0,0,0,0,0,0,0,0,0,0,0,0,0,0,0,0,0,0,0,0,3.5739,3.5739,0,3.5747,3.5747,3.5747,3.5631,3.5627,3.5624,3.5621,3.5635,3.5638,3.5642,0,0,0,0,0,0,0,0,0,0,0,0,0,3.5633,3.5635,3.5739,3.5739,3.5739,3.5746,3.5747,3.5747,3.5631,3.5627,3.5623,3.562,3.5634,3.5638,3.5642,0,0,0,0,0,0,0,0,0,0,0,0,0,3.5664,3.5636,3.5739,3.5682,3.5677,3.5746,3.5747,3.5747,3.5632,3.5627,3.5622,3.5618,3.5633,3.5637,3.5642,3.5768,0,0,3.5658,3.566,0,0,0,0,0,0,0,0,3.5662,3.5668,3.5691,3.5686,3.5681,3.5683,3.5714,3.5754,3.5633,3.5649,3.5621,3.5616,3.5655,3.5658,3.567,3.5769,3.5769,3.5658,3.5661,3.5663,3.5665,0,0,0,0,0,0,0,3.566,3.5667,3.5742,3.5691,3.5685,3.5659,3.5658,3.5721,3.5679,3.5648,3.5639,3.5641,3.5652,3.5665,3.5669,3.5769,3.5658,3.5662,3.5665,3.5667,3.5976,3.5981,0,0,0,0,0,0,3.5665,3.5666,3.5742,3.5742,3.5659,3.5665,3.5664,3.5687,3.5678,3.5672,3.5645,3.5636,3.5659,3.5664,3.5669,3.5818,3.5663,3.5668,3.5671,3.5971,3.5977,3.5982,0,0,0,0,0,0,3.5663,3.5673,3.5742,3.5702,3.5709,3.5672,3.5699,3.569,3.5703,3.5676,3.5669,3.5667,3.5656,3.5662,3.5745,3.5817,3.567,3.5675,3.5964,3.5972,3.598,3.6116,0,0,0,0,0,0,3.566,3.5672,3.5718,3.5704,3.5711,3.5815,3.5703,3.5693,3.5711,3.5699,3.5694,3.5689,3.5652,3.5738,3.575,3.5821,3.5678,3.5958,3.5968,3.5977,3.6105,3.6128,3.6147,0,0,0,0,0,3.5657,3.5757,3.5721,3.5731,3.5767,3.5819,3.5824,3.5778,3.5718,3.5765,3.5748,3.5689,3.5807,3.5747,3.576,3.5834,3.5953,3.5965,3.5976,3.6096,3.6123,3.6147,0,0,0,0,0,0,3.5782,3.5754,3.5714,3.5811,3.5819,3.5799,3.5857,3.5808,3.5834,3.5822,3.5766,3.5766,3.5858,3.5854,3.5788,3.5957,3.587,3.5885,3.5956,3.5982,3.6003,3.6003,3.5683,0,0,0,0,0,3.5821,3.5863,3.5837,3.5926,3.5932,3.5894,3.5915,3.5879,3.5885,3.5888,3.5877,3.5887,3.5927,3.5954,3.5988,3.6104,3.6103,3.6161,3.6182,3.6199,3.6214,3.6278,3.6304,3.6021,3.6021,3.6021,0,0,3.5902,3.5891,3.5922,3.5951,3.5952,3.6001,3.5897,3.5952,3.5989,3.5897,3.5974,3.5967,3.5975,3.6075,3.6118,3.6074,3.6291,3.6214,3.6228,3.6233,3.6292,3.6319,3.6343,3.6029,3.6027,3.6026,0,0,3.6074,3.607,3.6144,3.6148,3.6151,3.6126,3.6144,3.6133,3.6124,3.62,3.6134,3.6177,3.6245,3.6255,3.6268,3.6447,3.6396,3.646,3.6571,3.6634,3.6656,3.6676,3.6743,3.6767,3.6474,3.6474,3.6475,0,3.6175,3.6243,3.619,3.625,3.6266,3.6184,3.6262,3.6268,3.6284,3.6298,3.6248,3.6333,3.6333,3.6435,3.6479,3.6492,3.6514,3.6461,3.6657,3.6676,3.6693,3.6757,3.6782,3.6482,3.6482,3.6481,3.648,0,3.6369,3.6417,3.6478,3.6493,3.6516,3.6585,3.6545,3.6575,3.6538,3.6519,3.66,3.6596,3.663,3.6651,3.6616,3.675,3.6723,3.6666,3.6577,3.6729,3.6788,3.6811,3.6494,3.6491,3.6489,3.6487,0,0,3.662,3.6606,3.663,3.6637,3.6635,3.6673,3.6739,3.6771,3.6799,3.6813,3.687,3.693,3.6878,3.6894,3.6859,3.6914,3.706,3.685,3.6849,3.6891,3.7212,3.7257,3.7285,3.7025,3.7029,3.7033,3.7212,0,3.679,3.69,3.6856,3.6971,3.7017,3.6941,3.7,3.7007,3.6992,3.7031,3.7014,3.7059,3.6985,3.6994,3.7045,3.7031,3.7124,3.7017,3.708,3.7083,3.7083,3.7315,3.7362,3.7531,3.7234,3.7238,3.7241,0,3.7003,3.7025,3.7145,3.7137,3.7155,3.7208,3.7235,3.7272,3.728,3.7265,3.7284,3.7237,3.7305,3.7216,3.7311,3.7239,3.7263,3.726,3.7266,3.7271,3.7173,3.733,3.7584,3.7611,3.7276,3.7273,3.7271,0,3.7178,3.7238,3.7318,3.7326,3.7318,3.7358,3.7357,3.736,3.7383,3.7407,3.7422,3.7454,3.7473,3.7501,3.7466,3.7404,3.7567,3.7474,3.756,3.7561,3.7599,3.7597,3.7863,3.7611,3.761,3.761,3.7609,0,3.7374,3.7452,3.7397,3.7446,3.7532,3.7481,3.7567,3.7558,3.7562,3.7611,3.7547,3.7595,3.7545,3.7589,3.7562,3.7647,3.7655,3.7647,3.764,3.7654,3.7656,3.767,3.7659,3.7616,3.7615,3.7614,3.7612,0,3.7585,3.7551,3.7634,3.762,3.7618,3.7682,3.7672,3.7719,3.7699,3.7762,3.7774,3.7744,3.7793,3.776,3.781,3.7792,3.7903,3.7878,3.7901,3.7895,3.7983,3.7976,3.8269,3.8306,3.8028,3.803,3.8033,0,3.7713,3.7771,3.7763,3.7791,3.7794,3.7838,3.7861,3.7814,3.7841,3.7855,3.7902,3.7945,3.7976,3.8059,3.8043,3.8082,3.8059,3.8159,3.8064,3.8078,3.8064,3.8062,3.8069,3.8179,3.8182,3.8184,3.8187,0,3.7946,3.7927,3.7961,3.7991,3.802,3.8041,3.8057,3.8084,3.8036,3.8071,3.8119,3.8144,3.8194,3.8239,3.8271,3.8273,3.8224,3.8216,3.8239,3.8255,3.8267,3.8265,3.7955,3.821,3.8208,3.8206,3.8205,3.8204,3.8122,3.8171,3.8173,3.8215,3.8222,3.8239,3.8283,3.8269,3.8308,3.8344,3.8314,3.8373,3.8382,3.842,3.8428,3.8476,3.8435,3.8467,3.8475,3.8485,3.8498,3.8258,3.8481,3.848,3.848,3.8479,3.8478,0,3.8354,3.8352,3.839,3.8415,3.8449,3.8396,3.8412,3.8445,3.8496,3.8508,3.8541,3.8598,3.8642,3.863,3.867,3.871,3.8689,3.8723,3.872,3.8722,3.853,3.8508,3.8739,3.8739,3.8739,3.8739,3.8739,3.8739,3.8479,3.8559,3.8541,3.8626,3.8623,3.8679,3.8693,3.871,3.8719,3.8786,3.8821,3.8812,3.8815,3.8855,3.8894,3.889,3.8909,3.8952,3.894,3.8761,3.8735,3.8711,3.869,3.8955,3.8956,3.9128,3.9129,3.9131]},{"header":{"parameterUnit":"m.s-1","parameterCategory":1,"la1":30.2991,"la2":30.254,"lo1":-89.0895,"lo2":-89.0444,"dy":0.0017,"dx":0.0017,"nx":28,"ny":28,"refTime":"2024-02-03T09:00:00:Z","depth":0,"parameterNumber":3,"parameterNumberName":"V-component_of_WINDS"},"data":[0,0,0,0,0,0,0,0,0,0,0,0,0,0,0,0,0,0,0,0,0,0,0,0,0,0,0,0,0,0,0,0,0,0,0,0,0,0,0,0,0,0,0,0,0,0,0,0,0,0,0,0,0,0,0,0,0,0,-0.769,-0.7693,0,-0.7979,-0.7982,-0.7985,-0.8194,-0.8196,-0.8198,-0.8199,-0.8508,-0.8515,-0.8521,0,0,0,0,0,0,0,0,0,0,0,0,0,-0.733,-0.7336,-0.769,-0.7693,-0.7697,-0.7978,-0.7982,-0.7986,-0.8194,-0.8196,-0.8198,-0.82,-0.8506,-0.8514,-0.8522,0,0,0,0,0,0,0,0,0,0,0,0,0,-0.754,-0.7338,-0.7689,-0.7834,-0.785,-0.7977,-0.7982,-0.7987,-0.8193,-0.8196,-0.8199,-0.8201,-0.8504,-0.8513,-0.8523,-0.8533,0,0,-0.8554,-0.8558,0,0,0,0,0,0,0,0,-0.7527,-0.7553,-0.7809,-0.7824,-0.7842,-0.8053,-0.7969,-0.8171,-0.8193,-0.8063,-0.8199,-0.8202,-0.8356,-0.8378,-0.8427,-0.8548,-0.8561,-0.8554,-0.856,-0.8565,-0.8568,0,0,0,0,0,0,0,-0.7513,-0.7542,-0.7805,-0.7813,-0.7833,-0.7889,-0.7921,-0.8008,-0.8192,-0.8075,-0.8091,-0.8121,-0.8365,-0.8417,-0.8436,-0.8566,-0.8554,-0.8563,-0.8569,-0.8573,-0.8711,-0.8708,0,0,0,0,0,0,-0.7474,-0.7528,-0.7795,-0.7813,-0.7687,-0.7893,-0.793,-0.7983,-0.8192,-0.8226,-0.8119,-0.813,-0.8398,-0.8424,-0.8447,-0.8474,-0.8565,-0.8574,-0.858,-0.8713,-0.871,-0.8708,0,0,0,0,0,0,-0.7465,-0.7496,-0.7784,-0.7675,-0.7716,-0.7896,-0.7955,-0.7987,-0.8039,-0.8225,-0.826,-0.8137,-0.8402,-0.8433,-0.851,-0.8487,-0.8578,-0.8588,-0.8716,-0.8712,-0.8709,-0.8525,0,0,0,0,0,0,-0.7454,-0.7491,-0.7494,-0.7673,-0.7721,-0.7837,-0.7953,-0.7991,-0.8054,-0.8071,-0.8251,-0.8283,-0.8406,-0.8493,-0.8519,-0.8503,-0.8595,-0.8719,-0.8714,-0.871,-0.8534,-0.8516,-0.85,0,0,0,0,0,-0.744,-0.7434,-0.7493,-0.7524,-0.7727,-0.7835,-0.7863,-0.8,-0.8051,-0.8058,-0.8177,-0.8278,-0.8484,-0.8499,-0.8531,-0.8516,-0.8721,-0.8715,-0.871,-0.8542,-0.8519,-0.85,0,0,0,0,0,0,-0.7254,-0.746,-0.7528,-0.7579,-0.7687,-0.787,-0.7883,-0.7972,-0.8072,-0.8085,-0.8255,-0.8294,-0.8353,-0.8443,-0.8455,-0.8538,-0.8616,-0.8616,-0.8477,-0.8457,-0.844,-0.8419,-0.8604,0,0,0,0,0,-0.7217,-0.7282,-0.7462,-0.7489,-0.754,-0.77,-0.7753,-0.7848,-0.797,-0.8018,-0.8143,-0.826,-0.8353,-0.841,-0.8505,-0.8547,-0.8591,-0.8553,-0.8536,-0.8521,-0.8521,-0.8551,-0.8537,-0.869,-0.869,-0.8691,0,0,-0.7145,-0.7266,-0.7298,-0.7455,-0.755,-0.7618,-0.7738,-0.7806,-0.7859,-0.803,-0.8109,-0.8204,-0.8347,-0.8405,-0.8438,-0.8482,-0.8487,-0.8514,-0.8501,-0.8509,-0.8544,-0.8529,-0.8516,-0.8687,-0.8688,-0.8688,0,0,-0.7048,-0.7144,-0.7178,-0.7269,-0.741,-0.7516,-0.7524,-0.7693,-0.7761,-0.7841,-0.7971,-0.8039,-0.8193,-0.8289,-0.8358,-0.8293,-0.839,-0.832,-0.8232,-0.826,-0.8248,-0.8238,-0.8216,-0.8206,-0.8318,-0.8318,-0.8317,0,-0.6942,-0.7045,-0.7185,-0.7243,-0.7309,-0.7461,-0.7498,-0.7582,-0.7748,-0.7792,-0.7837,-0.8033,-0.814,-0.8223,-0.8207,-0.8257,-0.8274,-0.8301,-0.8237,-0.8229,-0.8222,-0.8203,-0.8194,-0.8308,-0.8309,-0.831,-0.8311,0,-0.6908,-0.6977,-0.6988,-0.7138,-0.7205,-0.7253,-0.7403,-0.7455,-0.7544,-0.7647,-0.7728,-0.786,-0.7984,-0.8011,-0.8101,-0.8108,-0.8131,-0.8204,-0.8286,-0.8195,-0.818,-0.8174,-0.8295,-0.8298,-0.8301,-0.8303,0,0,-0.6705,-0.6928,-0.693,-0.6999,-0.7164,-0.7223,-0.7278,-0.7394,-0.7436,-0.7545,-0.7597,-0.7722,-0.779,-0.7868,-0.7971,-0.7994,-0.7935,-0.8066,-0.8072,-0.8038,-0.7953,-0.7897,-0.7886,-0.7999,-0.7999,-0.7998,-0.7941,0,-0.6635,-0.6736,-0.6862,-0.6923,-0.699,-0.7134,-0.7182,-0.729,-0.7387,-0.7461,-0.7571,-0.7657,-0.7739,-0.7787,-0.7817,-0.7935,-0.7921,-0.7942,-0.8054,-0.8056,-0.8015,-0.7879,-0.7821,-0.7761,-0.7936,-0.7935,-0.7935,0,-0.6567,-0.6662,-0.6726,-0.6883,-0.6917,-0.6957,-0.7073,-0.7141,-0.7267,-0.7336,-0.742,-0.7529,-0.7598,-0.7668,-0.7767,-0.7778,-0.7832,-0.7897,-0.7898,-0.7916,-0.7991,-0.7894,-0.7745,-0.7736,-0.7927,-0.7928,-0.7928,0,-0.6413,-0.6558,-0.6616,-0.6671,-0.6855,-0.688,-0.6959,-0.7087,-0.7148,-0.7251,-0.7293,-0.7404,-0.7465,-0.7551,-0.7687,-0.7726,-0.7772,-0.7854,-0.7835,-0.7831,-0.784,-0.7838,-0.7699,-0.787,-0.787,-0.7871,-0.7871,0,-0.6323,-0.6357,-0.6548,-0.6584,-0.6627,-0.6773,-0.6814,-0.6907,-0.7019,-0.7078,-0.7211,-0.7264,-0.744,-0.7516,-0.7623,-0.769,-0.7717,-0.7777,-0.7806,-0.7766,-0.7758,-0.7805,-0.7814,-0.7868,-0.7869,-0.7869,-0.787,0,-0.616,-0.6289,-0.6361,-0.6527,-0.657,-0.6594,-0.674,-0.6782,-0.6884,-0.6957,-0.6983,-0.7146,-0.7241,-0.7384,-0.7525,-0.7597,-0.7647,-0.7693,-0.7602,-0.762,-0.7592,-0.7593,-0.748,-0.7474,-0.7646,-0.7644,-0.7642,0,-0.6095,-0.6124,-0.6291,-0.6337,-0.6409,-0.6483,-0.6544,-0.6689,-0.6748,-0.6892,-0.6917,-0.7021,-0.7113,-0.7259,-0.7393,-0.7501,-0.7552,-0.7504,-0.7569,-0.7528,-0.7553,-0.755,-0.7555,-0.749,-0.7487,-0.7485,-0.7483,0,-0.5966,-0.6027,-0.6107,-0.6209,-0.6277,-0.6366,-0.6462,-0.6493,-0.666,-0.6721,-0.6816,-0.6886,-0.7026,-0.7129,-0.7254,-0.7342,-0.7441,-0.7461,-0.7463,-0.7424,-0.737,-0.74,-0.7562,-0.7464,-0.7466,-0.7467,-0.7468,-0.7469,-0.5852,-0.5884,-0.6005,-0.609,-0.6176,-0.6261,-0.6308,-0.6413,-0.6494,-0.6615,-0.6697,-0.6788,-0.6915,-0.7093,-0.7174,-0.725,-0.7293,-0.7295,-0.7296,-0.7295,-0.7281,-0.7355,-0.7274,-0.7275,-0.7275,-0.7276,-0.7277,0,-0.5731,-0.5814,-0.5891,-0.6017,-0.6084,-0.6165,-0.6275,-0.6327,-0.6404,-0.651,-0.6595,-0.6706,-0.6805,-0.6945,-0.7056,-0.7091,-0.7139,-0.7115,-0.7116,-0.7134,-0.7236,-0.7223,-0.7074,-0.7074,-0.7074,-0.7074,-0.7074,-0.7074,-0.5676,-0.5734,-0.5808,-0.5911,-0.5997,-0.6082,-0.6138,-0.6219,-0.6304,-0.6419,-0.65,-0.6588,-0.6709,-0.683,-0.6926,-0.6965,-0.7001,-0.6962,-0.7015,-0.7108,-0.7127,-0.7145,-0.7134,-0.6968,-0.6968,-0.6909,-0.6908,-0.6907]}]]